Change the Weather History Date:

Monday, July 29, 2013

  Actual Average Record
Temperature  
Mean Temperature 91 °F 85 °F  
Max Temperature 102 °F 96 °F 103 °F (1946)
Min Temperature 80 °F 75 °F 67 °F (1994)
Degree Days  
Heating Degree Days 0 0  
Month to date heating degree days 0 0  
Since 1 June heating degree days 0 0  
Since 1 July heating degree days 0 0  
Cooling Degree Days 26 20  
Month to date cooling degree days 610 566  
Year to date cooling degree days 1802 1718  
Since 1 June cooling degree days 1185 1089  
Growing Degree Days 41 (Base 50)    
Moisture  
Dew Point 70 °F    
Average Humidity 53    
Maximum Humidity 79    
Minimum Humidity 27    
Precipitation  
Precipitation 0.00 in 0.06 in 0.96 in (1893)
Month to date precipitation 0.73 2.63  
Year to date precipitation 22.59 18.74  
Snow  
Snow 0.00 in - - ()
Month to date snowfall 0.0  
Since 1 June snowfall 0.0  
Since 1 July snowfall 0.0  
Snow Depth 0.00 in    
Sea Level Pressure  
Sea Level Pressure 29.94 in    
Wind  
Wind Speed 15 mph (SSE)    
Max Wind Speed 24 mph    
Max Gust Speed 30 mph    
Visibility 10 miles    
Events      
T = Trace of Precipitation, MM = Missing Value Source: NWS Daily Summary

Daily Weather History Graph

Daily Weather History Graph

Search for Another Location

Airport or City:

Trip Planner

Search our weather history database for the weather conditions in past years. The results will help you decide how hot, cold, wet, or windy it might be!

Date:

Astronomy

Jul. 29, 2013 Rise Set
Actual Time 6:52 AM CDT 8:28 PM CDT
Civil Twilight 6:26 AM CDT 8:54 PM CDT
Nautical Twilight 5:55 AM CDT 9:25 PM CDT
Astronomical Twilight 5:22 AM CDT 9:57 PM CDT
Moon 12:28 AM CDT (7/29) 1:56 PM CDT (7/29)
Length of Visible Light 14h 27m
Length of Day
13h 36m
Waning Gibbous, 50% of the Moon is Illuminated
Jul 29
Waning Gibbous
Jul 29
Last Quarter
Aug 6
New
Aug 14
First Quarter
Aug 20
Full

Hourly Weather History & Observations

Time (CDT) Temp. Heat Index Dew Point Humidity Pressure Visibility Wind Dir Wind Speed Gust Speed Precip Events Conditions
12:31 AM 82.4 °F 88.2 °F 73.4 °F 74% 29.96 in 10.0 mi SE 12.7 mph - N/A   Mostly Cloudy
12:51 AM 82.9 °F 90.2 °F 75.0 °F 77% 29.90 in 10.0 mi SE 12.7 mph - N/A   Overcast
1:51 AM 82.9 °F 90.2 °F 75.0 °F 77% 29.90 in 10.0 mi SSE 13.8 mph - N/A   Overcast
2:51 AM 82.0 °F 88.6 °F 75.0 °F 79% 29.91 in 10.0 mi SSE 10.4 mph - N/A   Overcast
3:51 AM 82.0 °F 87.9 °F 73.9 °F 76% 29.91 in 10.0 mi SSE 8.1 mph - N/A   Overcast
4:51 AM 81.0 °F 86.2 °F 73.9 °F 79% 29.91 in 10.0 mi SSE 13.8 mph - N/A   Overcast
5:51 AM 80.1 °F 84.2 °F 73.0 °F 79% 29.91 in 10.0 mi SSE 13.8 mph - N/A   Overcast
6:51 AM 80.1 °F 84.5 °F 73.9 °F 81% 29.94 in 10.0 mi SSE 10.4 mph - N/A   Overcast
7:51 AM 81.0 °F 85.8 °F 73.0 °F 77% 29.96 in 8.0 mi SSE 11.5 mph - N/A   Mostly Cloudy
8:51 AM 82.9 °F 88.0 °F 72.0 °F 69% 29.97 in 10.0 mi South 12.7 mph 19.6 mph N/A   Mostly Cloudy
9:14 AM 84.2 °F 89.6 °F 71.6 °F 66% 30.04 in 10.0 mi South 13.8 mph - N/A   Mostly Cloudy
9:51 AM 86.0 °F 91.5 °F 71.1 °F 61% 29.98 in 10.0 mi SSE 13.8 mph 21.9 mph N/A   Mostly Cloudy
10:51 AM 89.1 °F 93.7 °F 69.1 °F 52% 29.98 in 10.0 mi South 13.8 mph 19.6 mph N/A   Scattered Clouds
11:51 AM 91.9 °F 95.4 °F 66.9 °F 44% 29.98 in 10.0 mi South 16.1 mph - N/A   Scattered Clouds
12:51 PM 95.0 °F 97.4 °F 64.9 °F 37% 29.96 in 10.0 mi South 13.8 mph 21.9 mph N/A   Partly Cloudy
1:51 PM 98.1 °F 101.2 °F 64.9 °F 34% 29.94 in 10.0 mi South 16.1 mph 24.2 mph N/A   Partly Cloudy
2:51 PM 99.0 °F 100.5 °F 62.1 °F 30% 29.92 in 10.0 mi South 18.4 mph 21.9 mph N/A   Partly Cloudy
3:51 PM 100.9 °F 104.0 °F 64.0 °F 30% 29.91 in 10.0 mi SSE 16.1 mph 25.3 mph N/A   Partly Cloudy
4:51 PM 100.9 °F 102.1 °F 61.0 °F 27% 29.90 in 10.0 mi SSE 15.0 mph 23.0 mph N/A   Scattered Clouds
5:51 PM 100.0 °F 101.8 °F 63.0 °F 29% 29.90 in 10.0 mi SSE 15.0 mph 25.3 mph N/A   Scattered Clouds
6:51 PM 96.1 °F 101.0 °F 68.0 °F 40% 29.89 in 10.0 mi SE 19.6 mph 26.5 mph N/A   Scattered Clouds
7:51 PM 91.9 °F 97.4 °F 70.0 °F 48% 29.90 in 10.0 mi SSE 17.3 mph 21.9 mph N/A   Partly Cloudy
8:51 PM 90.0 °F 96.4 °F 71.1 °F 54% 29.94 in 10.0 mi SSE 19.6 mph - N/A   Partly Cloudy
9:51 PM 87.1 °F 93.6 °F 72.0 °F 61% 29.97 in 10.0 mi SSE 15.0 mph - N/A   Partly Cloudy
10:51 PM 84.9 °F 90.7 °F 72.0 °F 65% 30.00 in 10.0 mi SE 13.8 mph - N/A   Partly Cloudy
11:51 PM 82.0 °F 86.7 °F 72.0 °F 71% 29.98 in 10.0 mi SSE 15.0 mph - N/A   Partly Cloudy